RH
78 48 45 28 25 32 41 26 21 19 17 20 28 29 31 38 39 55 39 53 81 86 89 88 92 92 92 92 91 90 90 90 90 91 90 91 91 92 92 92 92 90 86 83 81 80 80 80 86
63 33 30 33 34 33 25 23 22 22 20 26 21 25 25 25 34 46 50 60 79 83 89 88 92 90 92 92 93 92 90 90 90 90 90 91 91 91 92 92 91 90 88 81 80 79 79 86 88
37 33 32 40 45 34 30 18 18 21 20 19 21 18 22 23 21 35 57 81 79 86 86 88 93 90 90 91 93 94 93 92 92 91 91 91 91 91 91 91 90 89 88 82 80 80 85 86 90
34 31 34 38 54 33 27 18 17 22 20 19 20 18 16 16 20 25 78 77 84 86 85 94 94 92 88 90 93 94 94 95 94 94 93 92 91 91 91 90 90 88 89 86 84 84 88 90 93
34 34 42 53 47 31 29 23 21 22 23 21 18 16 17 13 19 56 83 81 87 90 93 91 94 91 89 87 89 91 93 94 96 96 95 94 92 90 91 91 90 89 89 87 86 88 90 92 95
33 35 41 46 34 29 26 22 19 16 15 14 14 15 14 12 28 39 70 90 91 94 94 94 91 89 88 86 88 91 93 95 96 97 96 96 94 92 92 92 92 92 90 90 90 86 88 92 94
36 40 49 56 36 25 20 16 16 14 14 13 15 14 13 14 21 28 34 41 47 51 57 67 85 94 95 95 92 91 91 94 96 97 98 97 97 94 93 93 92 92 90 90 92 90 91 92 93
34 36 56 51 32 19 11 12 13 10 13 12 15 16 13 15 18 32 46 53 52 51 53 54 56 64 73 75 94 96 95 94 93 96 98 99 98 96 94 94 93 92 90 91 92 92 94 94 96
28 33 40 35 26 16 8 8 8 10 13 14 14 13 12 16 26 47 53 55 56 54 54 52 56 68 66 66 73 75 81 90 95 95 98 97 98 98 96 96 95 93 92 92 93 94 95 96 97
25 35 30 24 17 10 9 9 10 9 13 14 13 14 28 46 49 55 58 61 58 57 55 55 55 60 63 58 82 84 74 81 74 82 94 94 94 99 95 97 95 94 94 94 94 94 96 98 99
34 25 24 15 11 7 8 10 10 9 16 15 12 27 49 51 53 54 55 58 60 59 60 58 55 56 60 65 83 88 87 89 83 74 74 88 96 99 99 99 99 98 96 98 98 98 99 94 100
17 15 19 16 14 8 8 9 11 9 10 12 18 48 50 52 53 53 54 54 59 57 58 59 58 56 58 62 64 82 81 80 88 75 68 77 90 98 99 99 99 99 99 99 99 95 91 92 98
15 14 12 13 11 10 10 10 10 12 13 36 45 48 53 52 52 52 52 56 56 58 58 60 60 60 56 55 61 65 74 76 84 76 75 76 78 85 96 98 99 99 99 99 99 95 92 95 99
13 16 12 13 11 10 11 13 11 10 22 47 48 54 53 50 52 54 55 57 55 54 58 57 60 62 59 59 60 66 67 65 67 74 79 76 78 78 87 93 98 98 98 98 98 98 98 99 99
17 18 16 12 11 10 11 12 11 10 35 48 48 49 51 51 51 57 57 58 58 56 57 58 56 62 64 62 62 65 66 67 69 68 70 72 74 80 82 84 93 95 98 97 98 99 99 99 99
19 21 21 17 12 10 9 12 10 13 46 54 50 50 54 55 56 60 58 60 60 59 59 59 56 64 65 65 65 63 66 71 71 69 70 69 74 75 79 85 87 89 97 97 98 98 98 98 98
25 24 22 15 12 13 11 13 10 14 46 51 55 58 55 57 58 59 60 68 67 62 61 62 62 67 68 67 68 70 70 71 70 72 71 72 74 76 82 83 83 85 94 97 97 97 96 98 98
27 24 18 18 14 15 15 12 13 16 46 58 60 59 60 60 60 57 64 63 69 70 65 65 64 68 70 72 68 68 71 71 70 71 70 74 75 77 82 83 84 83 86 94 98 95 97 96 95
24 25 25 20 11 15 15 14 13 47 62 66 65 64 64 63 61 61 64 69 70 69 64 68 68 69 71 72 74 73 76 74 74 70 70 74 77 77 81 83 86 85 83 88 92 95 96 97 96
24 26 26 19 13 14 17 14 15 50 65 62 62 67 66 66 66 60 66 72 76 69 68 68 70 70 72 70 72 74 75 74 72 71 69 71 74 74 74 79 85 84 89 83 88 94 93 94 97
28 25 21 15 17 16 16 15 14 60 57 56 60 62 63 68 71 64 64 76 80 69 75 69 73 73 72 72 71 73 72 72 73 72 72 70 72 74 74 74 82 86 88 89 84 93 93 94 97
32 21 17 16 18 20 18 23 17 63 63 60 61 66 68 68 67 66 72 77 76 76 76 74 73 76 69 73 76 80 78 80 75 74 71 70 70 73 75 71 77 85 87 88 86 88 92 89 92
27 20 20 22 23 24 22 21 21 63 70 68 67 66 72 73 71 75 79 79 79 73 75 80 78 75 74 74 75 76 78 77 76 73 74 73 72 74 75 76 73 79 85 88 85 86 89 90 87
21 20 26 29 26 28 22 19 26 79 64 64 63 64 66 70 72 73 78 76 76 75 81 84 80 76 73 73 71 74 75 77 78 77 80 78 76 76 77 76 76 78 82 87 87 81 88 88 91
19 23 36 32 32 32 22 22 18 62 54 55 63 68 69 71 77 82 84 83 78 80 84 80 78 79 74 72 71 74 77 74 78 79 79 82 80 81 81 82 86 84 83 82 85 84 87 87 88
23 26 52 48 45 40 33 32 34 62 62 60 60 67 68 73 78 83 84 85 85 83 86 87 84 80 76 72 73 74 74 74 76 77 79 82 86 84 84 86 86 86 85 85 87 85 84 90 97
27 29 29 51 55 57 40 66 62 63 66 65 68 67 75 76 80 81 81 83 87 89 87 91 88 81 76 78 76 77 74 74 77 80 84 86 85 82 84 86 89 88 90 89 87 87 85 90 93
26 27 42 54 46 41 34 54 60 71 70 67 72 73 75 72 78 80 81 83 87 87 88 90 88 85 81 80 80 76 73 73 78 82 84 86 88 88 89 87 88 90 91 91 88 87 91 93 92
36 51 47 47 53 55 58 43 57 58 62 70 73 70 75 75 79 80 80 83 87 87 89 89 86 84 81 80 80 78 78 75 79 82 84 85 87 89 88 86 87 89 91 89 93 92 91 91 84
27 39 49 73 56 61 69 41 65 58 65 70 70 69 70 74 77 77 78 84 85 86 86 86 85 84 79 78 77 74 74 79 82 83 82 85 87 88 91 92 86 87 90 91 96 94 88 87 87
Wind_Speed
7 4 2 4 5 6 2 2 2 4 4 5 1 9 8 4 4 5 5 8 4 4 4 3 4 6 7 5 3 5 7 7 9 8 9 9 9 10 11 11 10 10 10 9 8 8 8 7 6
4 2 4 3 6 5 4 4 2 0 3 8 8 3 7 4 3 3 5 8 5 5 4 4 4 5 7 6 4 3 5 5 6 6 6 7 8 9 9 9 9 8 9 8 7 7 7 7 7
2 2 4 6 4 4 2 4 4 0 3 3 5 5 4 5 4 2 5 6 6 5 4 4 5 4 6 7 6 5 4 3 3 4 4 5 6 7 8 8 8 8 8 8 7 6 4 6 7
3 5 5 6 1 3 3 4 4 2 5 9 5 8 3 4 4 4 3 6 6 5 4 5 4 4 4 5 5 5 4 2 2 2 2 2 3 4 6 7 7 7 7 7 7 6 6 5 5
5 4 5 3 3 5 2 1 1 5 4 6 0 4 3 8 7 7 7 7 7 7 6 4 2 2 1 3 4 5 5 4 2 0 2 4 4 4 5 5 6 6 6 7 7 7 6 6 6
5 4 6 1 5 3 3 4 2 6 7 4 7 6 5 7 10 7 11 12 11 8 7 8 10 9 5 4 6 6 6 6 6 4 3 4 5 6 6 6 6 5 6 6 5 7 8 8 7
6 5 4 3 3 4 3 6 4 4 4 5 7 5 5 5 5 15 17 19 17 17 17 16 14 12 13 12 11 7 4 3 3 5 6 6 6 5 6 6 6 6 6 6 5 6 7 8 8
6 5 2 2 2 1 5 1 1 4 1 3 3 5 5 3 6 13 15 15 16 17 15 14 14 13 13 14 15 12 13 11 8 4 3 5 6 6 6 7 7 7 8 7 6 7 6 7 7
3 5 1 3 3 2 6 3 5 2 6 4 3 4 8 9 6 15 13 15 12 13 14 13 13 13 12 12 14 16 18 18 14 11 11 6 3 4 6 6 8 8 8 8 8 8 7 6 5
5 4 8 5 4 4 1 2 2 4 4 4 5 10 13 12 14 15 13 11 13 13 12 11 11 12 11 9 11 11 11 8 9 10 8 7 8 4 4 6 9 9 9 9 9 8 7 5 3
1 5 4 4 6 7 4 1 2 8 1 4 7 8 9 13 11 12 10 10 8 6 8 11 10 10 11 9 7 5 5 6 6 10 10 8 7 5 4 3 3 4 6 4 5 4 3 6 3
4 4 4 5 4 5 6 4 1 4 7 8 10 11 9 14 11 10 10 10 7 10 10 8 11 10 10 6 7 6 6 6 6 8 11 9 6 6 6 4 4 4 3 5 4 4 7 8 6
5 1 3 4 4 3 5 5 5 3 4 16 15 12 12 12 11 8 8 7 7 11 11 10 10 12 12 10 8 7 7 6 8 8 9 8 8 8 7 6 5 5 5 5 5 7 7 8 6
4 2 4 1 5 3 5 4 6 8 13 14 14 10 9 11 9 6 8 8 10 9 10 9 9 10 11 10 11 8 6 8 8 7 8 11 9 8 9 8 7 6 7 7 6 7 8 7 5
4 4 5 6 6 6 6 3 8 5 16 15 12 10 10 10 8 8 6 9 7 7 7 10 10 9 10 11 10 8 8 8 8 8 10 11 10 11 10 10 8 8 7 9 7 6 4 4 4
4 3 3 1 5 5 8 7 5 7 18 12 11 9 9 8 8 6 6 7 5 5 10 10 11 11 11 9 8 8 8 7 7 8 9 12 11 13 11 9 10 9 6 8 8 8 7 7 7
4 4 3 8 6 3 5 5 6 12 16 13 9 7 7 6 6 6 5 4 4 8 11 12 12 11 11 10 8 7 8 6 7 7 7 10 12 12 10 9 10 13 8 8 8 8 9 8 7
5 4 4 5 4 4 4 7 2 8 17 15 10 7 6 5 4 5 4 4 5 7 8 8 8 8 9 7 7 6 5 5 6 7 7 11 9 12 10 9 11 10 11 8 8 11 9 6 9
1 3 4 6 6 4 8 5 4 6 11 11 8 8 7 6 3 4 4 4 6 8 9 7 9 10 8 8 10 8 10 11 8 9 11 11 9 11 12 10 10 9 10 13 11 11 10 10 8
5 6 8 7 5 4 3 9 5 3 5 9 10 7 6 4 3 3 5 6 7 7 7 8 9 10 8 6 7 5 9 5 10 8 10 12 13 13 12 13 12 12 9 12 14 13 10 9 10
6 6 5 6 2 2 3 7 6 3 8 7 5 5 5 5 3 4 5 5 6 12 11 11 9 10 9 10 8 8 8 7 7 9 10 11 15 15 15 17 14 13 11 10 13 12 17 12 10
9 7 7 5 4 5 2 7 7 6 7 6 6 6 6 5 4 6 7 8 8 7 6 8 10 8 9 10 9 12 10 12 10 11 11 14 16 15 14 18 17 15 12 14 13 13 14 15 13
8 6 6 3 4 3 3 2 5 8 6 7 7 5 4 4 6 6 5 4 5 6 8 9 10 9 8 9 10 9 12 11 11 12 17 16 14 14 14 16 18 17 12 15 16 16 17 15 12
6 5 6 5 2 6 8 7 6 8 10 11 6 6 6 5 6 5 5 6 6 7 7 7 8 8 9 9 11 14 16 16 15 15 13 12 12 12 14 16 17 17 17 17 16 18 18 17 16
5 7 1 3 1 8 6 8 14 1 10 15 12 7 6 6 5 5 6 7 7 9 8 7 8 10 10 12 14 15 15 16 16 16 12 18 15 12 14 17 16 15 17 19 17 18 18 19 18
8 9 7 7 5 4 3 9 6 3 7 11 9 7 6 5 5 4 4 5 7 8 8 8 9 11 12 14 15 13 14 11 12 14 14 13 13 14 18 19 19 20 21 20 18 16 16 15 12
8 9 6 5 1 1 5 3 2 3 6 8 7 6 5 4 4 5 5 5 6 7 8 8 9 10 12 13 13 13 14 15 16 19 16 13 17 15 18 21 21 21 24 23 19 15 18 14 12
9 10 4 1 6 7 5 6 5 10 11 8 7 6 5 5 5 3 4 5 4 7 7 8 7 9 10 11 11 12 14 16 16 16 17 19 18 20 21 22 21 20 23 14 16 17 15 14 11
4 4 2 4 5 5 2 7 4 15 13 12 8 7 6 5 5 2 2 3 5 7 8 8 8 10 12 12 13 14 14 17 16 15 15 17 19 19 19 20 22 20 18 14 14 16 14 15 14
1 6 7 5 5 4 4 9 5 9 10 8 7 6 5 6 5 3 1 4 5 6 8 9 8 9 11 11 13 15 15 15 16 16 17 17 18 18 17 19 19 20 17 15 9 13 13 16 16
Wind_Direction
307 312 137 37 53 59 354 290 251 315 37 347 24 93 110 62 59 143 280 348 72 93 110 118 110 101 96 94 110 113 112 113 115 120 120 124 126 128 131 135 139 137 138 147 147 154 150 150 163
313 151 50 77 77 60 287 262 196 308 133 144 57 18 41 72 56 59 358 336 89 110 98 115 127 101 86 76 64 80 93 98 108 115 124 131 135 138 139 141 146 144 142 143 162 178 169 157 175
244 51 80 93 111 154 209 230 238 269 56 204 113 65 36 326 1 65 331 80 89 89 101 91 38 67 91 80 65 56 74 100 114 129 145 148 151 152 152 149 151 154 149 152 164 183 178 173 182
26 10 35 79 194 257 224 221 226 208 54 47 108 63 52 302 353 337 52 107 100 101 112 94 71 61 54 72 76 70 74 107 148 153 176 183 185 172 166 165 162 160 155 158 170 179 174 185 183
35 59 55 64 292 264 315 285 244 46 54 19 199 106 62 357 356 32 44 43 63 47 46 62 78 83 69 51 57 47 35 21 11 158 215 222 211 202 193 195 181 173 175 170 177 175 177 187 190
39 92 55 99 294 314 29 354 91 76 112 129 68 99 69 336 47 14 45 51 47 33 24 20 10 6 13 48 40 36 27 11 356 331 283 259 242 216 200 204 202 202 196 189 181 175 182 189 204
102 74 159 215 271 355 316 306 73 94 130 16 137 86 107 44 13 64 63 60 51 43 39 31 23 19 13 356 353 355 358 22 2 336 321 302 282 252 221 219 216 212 203 209 195 193 186 194 204
106 92 80 275 237 329 291 341 117 71 31 286 94 143 141 124 62 69 61 56 49 41 36 30 28 25 25 12 6 356 347 335 321 289 275 295 302 276 253 231 224 221 209 209 201 209 205 203 187
103 67 159 248 180 167 326 23 3 346 79 63 51 98 73 65 55 64 57 47 43 34 31 26 23 19 14 19 14 17 18 2 347 335 326 312 265 281 272 255 236 224 211 207 202 207 214 215 166
83 106 214 207 165 171 213 45 55 68 36 47 70 65 62 72 62 68 54 54 46 33 28 27 24 20 11 15 13 7 2 359 354 350 330 313 298 264 238 263 251 234 219 210 204 207 207 204 156
356 187 220 245 193 164 158 120 108 130 245 199 166 103 80 76 66 72 68 63 54 43 32 27 27 20 17 12 8 1 0 343 343 348 344 322 285 280 272 239 253 250 234 224 208 195 198 209 187
350 289 231 225 206 151 174 156 105 179 214 150 93 117 106 82 72 67 66 62 49 38 35 24 25 23 21 8 7 352 350 347 348 335 337 329 323 280 262 244 229 219 229 217 204 203 210 217 211
175 311 337 306 197 256 137 191 187 197 147 94 99 95 95 97 89 76 71 65 52 41 20 19 26 19 11 11 359 354 349 346 332 336 329 332 319 310 288 260 235 211 196 211 210 208 211 212 204
296 281 266 274 239 255 173 234 135 231 105 98 106 98 90 95 99 94 61 57 51 44 31 16 24 16 7 4 355 345 341 339 335 327 324 324 318 313 307 279 251 235 205 198 207 209 213 210 196
283 326 317 213 219 239 174 249 235 213 117 118 107 97 93 90 84 76 78 68 52 47 31 24 16 16 13 358 347 338 335 334 329 325 326 324 322 314 310 304 278 242 226 205 199 207 203 204 208
356 35 323 277 165 264 142 253 267 138 122 118 117 108 96 86 84 70 65 66 47 49 37 25 13 7 2 351 337 329 326 324 317 320 320 322 322 319 311 307 298 269 227 220 203 198 208 212 208
2 250 263 320 222 159 179 222 235 109 129 131 123 119 111 97 78 74 75 71 50 44 33 23 9 3 349 336 330 320 312 311 312 310 308 309 314 313 308 299 294 307 256 224 214 206 200 200 208
208 221 240 248 294 212 201 242 194 111 140 144 139 129 116 105 99 95 75 41 37 39 32 25 4 352 339 330 326 314 306 312 308 303 306 307 300 303 302 293 292 286 294 241 217 214 200 199 200
35 243 255 266 274 206 226 225 201 103 119 132 138 142 144 133 146 105 84 47 39 30 22 13 354 353 348 340 343 343 334 328 318 315 307 300 296 298 302 297 285 282 272 282 231 222 199 207 185
237 266 270 276 260 202 218 252 100 186 143 150 150 145 153 128 98 78 50 33 36 16 12 4 5 354 331 336 330 311 315 306 308 308 313 309 301 299 296 294 287 287 281 272 263 219 220 212 186
228 211 242 210 309 4 110 303 251 50 103 113 120 127 113 121 114 49 41 31 15 13 3 359 349 343 323 334 323 319 318 318 319 319 315 310 302 297 291 292 283 279 267 270 272 222 226 210 194
255 214 222 164 110 215 98 264 273 161 142 147 147 141 141 119 75 54 31 22 8 353 332 337 350 324 330 326 320 333 325 323 323 313 310 308 302 293 287 295 285 273 268 259 256 255 219 225 203
239 184 172 137 133 110 268 295 236 133 174 187 181 166 143 120 94 82 50 22 342 351 352 345 326 316 315 319 323 324 333 319 317 316 315 308 302 294 295 290 288 279 270 261 252 256 228 230 214
131 82 46 47 93 258 188 186 215 191 187 172 167 162 155 106 78 71 45 10 351 347 352 339 304 310 315 324 330 342 336 325 321 320 315 309 308 301 297 294 291 284 273 260 257 252 235 220 232
125 121 277 295 241 240 219 204 258 299 176 168 161 161 141 102 84 52 32 3 351 347 342 311 322 317 328 336 344 343 331 318 321 315 315 315 313 310 301 293 288 282 274 263 256 249 245 222 219
190 163 169 209 212 265 130 230 274 74 85 105 119 137 123 103 108 68 33 359 341 335 308 313 322 330 338 341 339 335 326 325 320 318 315 310 304 304 309 299 292 285 276 264 250 247 241 226 198
194 205 170 114 276 61 232 282 280 122 100 118 133 130 133 107 106 71 13 355 339 302 306 301 323 333 341 334 333 325 332 330 325 319 313 313 310 308 306 300 296 288 276 259 238 238 233 217 213
171 153 98 327 192 234 253 258 244 185 175 160 158 158 143 105 105 68 4 330 294 306 298 306 321 335 333 329 326 325 332 331 324 318 317 316 311 313 308 307 300 297 295 246 238 227 221 205 196
148 175 127 140 159 188 254 254 336 192 180 165 164 161 158 143 137 129 264 336 329 305 301 312 335 342 338 333 332 332 332 329 325 318 318 316 314 312 311 312 307 307 299 277 234 218 208 205 196
169 179 152 147 197 222 157 265 344 150 147 146 160 149 149 142 149 139 25 31 339 312 322 337 332 342 337 332 329 333 329 327 328 323 322 321 318 315 317 316 320 317 317 297 253 225 207 200 199